Showing default

EXPLORER 25 (INJUN-4), 932

Orbit data source: Space-Track

EXPLORER 25 (INJUN-4), 932 is a payload satellite owned by NASA LaRC (US) in LEO that was launched on Sat, 21 Nov 1964 UTC via an SCOUT X-4 launch vehicle from the Air Force Western Test Range (AFWTR). Payloads include a variety of satellites, spacecraft, and rockets equipped with specific instruments for various scientific and technological missions. These include communications satellites like Starlink; space stations such as the ISS; scientific satellites like the Hubble; Earth observation satellites from companies like Planet Labs, Umbra, and HawkEye 360; GPS; miniature CubeSats for education and research; and military/defense satellites.

Loading next visibility...
EXPLORER 25 (INJUN-4) details
Identifier
932, 1964-076B
Orbit
LEO
Last TLE update12 hours ago
Origin
Flag of USNASA LaRC (US)
ManufacturerBENDX/UIA
MissionCivil Science
Bus & MotorBENDIX UTILITY, Unknown motor
Mass41 kg wet, 41 kg dry
Launch date (UTC)
1964-11-21 (60 years ago)
Launch vehicle
SCOUT X-4
Launch site
Air Force Western Test Range (AFWTR)
Object type
Payload
Rocket body
Debris
Shape & HBRPoly, 0.6 m
Radar Cross Section0.411 m², Medium (>0.1 m² and < 1m²)

Expand to show TLE details & history

TLE from 12 hours ago
0 EXPLORER 25 (INJUN-4)
1   932U 64076B   24356.73338325  .00000716  00000-0  24618-3 0  9999
2   932  81.3407  75.7333 1122586  58.0524 312.4794 12.66351261750067
Epoch: 2024-12-21T17:36Z
Definitive object data (Epoch: 2024-12-21T17:36:04.312Z)
Latitude-0.00002°
Longitude80.93503°
Altitude869.715 km
Speed7.666 km/s
True Right ascension05h 02m 55s
True Declination0° 00' 00"
Sunlit
Object was in full shadow at TLE epoch
Visualization TLE readout
Latitude-28.4°
Longitude-94.75914°
Altitude2,151.149 km
Speed6.501 km/s
Apparent Right ascension17h 13m 43s
Apparent Declination-33° 11' 18"
Sunlit
Object is in daylight
Visualization observer readout
Local Sidereal Time05:03:51
Azimuth342.851° N
Elevation-82.988°
Doppler factor1
Orbital elements
Apogee altitude2,266.66 km
Perigee altitude521.647 km
Semi-major axis7,772.291 km
Eccentricity0.1122586
Inclination81.3407°
RAAN75.7333°
Arg. of periapsis58.0524°
True anomaly302.06186°
Mean anomaly312.4794°
Eccentric anomaly307.36756°
Mean motion3.16752 °/min
BSTAR0.00024618
Orbital period113.65 mins
Loading maneuver chart data...
Loading historical data...
Loading historical data...
Loading historical data...
Loading historical data...
Loading historical data...
Loading historical data...
Loading historical data...

EXPLORER 25 (INJUN-4) Visibility forecast

Observer location: undefined°, undefined

Span
Click to sort rows by Start time (UTC) header in descending order
Start Az.
Max El. time (UTC)
Max El. Az.
Max El.
End time (UTC)
End Az.
6 mins2024-12-22 07:00:10.723Z223.581° SW2024-12-22 07:03:10.723Z279.535° WNW26.794°2024-12-22 07:06:10.723Z343.427° N
13 mins2024-12-22 16:53:10.723Z3.913° NNE2024-12-22 16:58:10.723Z91.821° ESE40.98°2024-12-22 17:06:10.723Z158.974° S
9 mins2024-12-22 18:49:10.723Z305.035° NW2024-12-22 18:52:10.723Z273.281° WNW20.629°2024-12-22 18:58:10.723Z225.839° WSW
6 mins2024-12-23 05:45:10.723Z154.675° SSE2024-12-23 05:48:10.723Z83.111° E29.9°2024-12-23 05:51:10.723Z28.117° NE
|